Moorhead, MN

5:26 PM CDT on September 21, 2017 (GMT -0500)
Moorhead Municipal

Weather History for KJKJ - February, 2014

Change the Weather History Date:

Friday, February 21, 2014

  Actual Average (KFAR) Record (KFAR)
Temperature  
Mean Temperature 6 °F -  
Max Temperature 12 °F 28 °F 49 °F (1981)
Min Temperature 0 °F 9 °F -26 °F (1956)
Degree Days  
Heating Degree Days 59    
Moisture  
Dew Point 2 °F    
Average Humidity 83    
Maximum Humidity 92    
Minimum Humidity 78    
Precipitation  
Precipitation 0.00 in - - ()
Sea Level Pressure  
Sea Level Pressure 29.69 in    
Wind  
Wind Speed 19 mph (NW)    
Max Wind Speed 25 mph    
Max Gust Speed 30 mph    
Visibility 10 miles    
Events      
Averages and records for this station are not official NWS values.
T = Trace of Precipitation, MM = Missing Value Source: NWS Daily Summary

Daily Weather History Graph

Daily Weather History Graph

Search for Another Location

Airport or City:

Trip Planner

Search our weather history database for the weather conditions in past years. The results will help you decide how hot, cold, wet, or windy it might be!

Date:

Astronomy

Feb. 21, 2014 Rise Set
Actual Time 7:20 AM CST 6:00 PM CST
Civil Twilight 6:49 AM CST 6:31 PM CST
Nautical Twilight 6:14 AM CST 7:06 PM CST
Astronomical Twilight 5:39 AM CST 7:41 PM CST
Moon 12:19 AM CST 10:20 AM CST
Length of Visible Light 11h 41m
Length of Day
10h 39m
Waning Gibbous, 60% of the Moon is Illuminated
Feb 21
Waning Gibbous
Feb 22
Last Quarter
Mar 1
New
Mar 8
First Quarter
Mar 16
Full

Hourly Weather History & Observations

Time (CST) Temp. Windchill Dew Point Humidity Pressure Visibility Wind Dir Wind Speed Gust Speed Precip Events Conditions
12:15 AM 6.8 °F -10.7 °F 3.2 °F 85% 29.65 in 7.0 mi NNW 15.0 mph - N/A   Overcast
12:35 AM 5.0 °F -13.0 °F 3.2 °F 92% 29.64 in 10.0 mi NNW 15.0 mph - N/A   Mostly Cloudy
12:54 AM 5.0 °F -13.6 °F 3.2 °F 92% 29.64 in 10.0 mi NNW 16.1 mph - N/A   Overcast
1:15 AM 5.0 °F -13.6 °F 3.2 °F 92% 29.64 in 7.0 mi NNW 16.1 mph - N/A   Overcast
1:34 AM 5.0 °F -14.7 °F 3.2 °F 92% 29.64 in 7.0 mi NNW 18.4 mph 26.5 mph N/A   Overcast
1:55 AM 5.0 °F -15.2 °F 1.4 °F 85% 29.63 in 7.0 mi NNW 19.6 mph - N/A   Overcast
2:15 AM 5.0 °F -16.2 °F 1.4 °F 85% 29.63 in 10.0 mi NNW 21.9 mph - N/A   Overcast
2:34 AM 3.2 °F -17.6 °F 1.4 °F 92% 29.63 in 10.0 mi NNW 19.6 mph 27.6 mph N/A   Overcast
2:55 AM 3.2 °F -18.6 °F -0.4 °F 85% 29.63 in 10.0 mi NNW 21.9 mph 26.5 mph N/A   Overcast
3:15 AM 3.2 °F -18.1 °F -0.4 °F 85% 29.62 in 10.0 mi NNW 20.7 mph - N/A   Overcast
3:34 AM 3.2 °F -17.6 °F -0.4 °F 85% 29.62 in 10.0 mi NNW 19.6 mph 26.5 mph N/A   Overcast
3:55 AM 3.2 °F -17.6 °F -0.4 °F 85% 29.62 in 10.0 mi NNW 19.6 mph 26.5 mph N/A   Overcast
4:15 AM 1.4 °F -20.5 °F -0.4 °F 92% 29.62 in 10.0 mi NNW 20.7 mph - N/A   Overcast
4:34 AM 1.4 °F -19.4 °F -2.2 °F 85% 29.63 in 10.0 mi NNW 18.4 mph - N/A   Overcast
4:55 AM 1.4 °F -18.8 °F -2.2 °F 85% 29.63 in 10.0 mi NNW 17.3 mph - N/A   Overcast
5:15 AM 1.4 °F -17.6 °F -2.2 °F 85% 29.64 in 10.0 mi NW 15.0 mph - N/A   Overcast
5:34 AM 1.4 °F -18.8 °F -2.2 °F 85% 29.64 in 10.0 mi NW 17.3 mph - N/A   Overcast
5:55 AM 1.4 °F -19.4 °F -2.2 °F 85% 29.63 in 10.0 mi NW 18.4 mph 23.0 mph N/A   Overcast
6:15 AM -0.4 °F -22.3 °F -2.2 °F 92% 29.64 in 10.0 mi NW 19.6 mph - N/A   Overcast
6:34 AM 1.4 °F -19.4 °F -2.2 °F 85% 29.64 in 10.0 mi NW 18.4 mph 24.2 mph N/A   Overcast
6:55 AM 1.4 °F -19.4 °F -2.2 °F 85% 29.64 in 10.0 mi NW 18.4 mph - N/A   Overcast
7:15 AM 1.4 °F -18.8 °F -2.2 °F 85% 29.64 in 10.0 mi NW 17.3 mph 24.2 mph N/A   Scattered Clouds
7:35 AM 1.4 °F -19.9 °F -2.2 °F 85% 29.64 in 10.0 mi NW 19.6 mph 27.6 mph N/A   Clear
7:55 AM 1.4 °F -18.8 °F -2.2 °F 85% 29.65 in 10.0 mi NW 17.3 mph - N/A   Mostly Cloudy
8:14 AM 1.4 °F -18.8 °F -2.2 °F 85% 29.65 in 10.0 mi NW 17.3 mph 21.9 mph N/A   Overcast
8:35 AM 1.4 °F -19.9 °F -2.2 °F 85% 29.65 in 10.0 mi NW 19.6 mph - N/A   Overcast
8:55 AM 1.4 °F -19.9 °F -2.2 °F 85% 29.65 in 10.0 mi NW 19.6 mph - N/A   Overcast
9:14 AM 3.2 °F -17.1 °F -0.4 °F 85% 29.65 in 10.0 mi NW 18.4 mph - N/A   Overcast
9:35 AM 3.2 °F -17.1 °F -0.4 °F 85% 29.65 in 10.0 mi NW 18.4 mph - N/A   Overcast
9:55 AM 3.2 °F -18.1 °F -0.4 °F 85% 29.65 in 10.0 mi NW 20.7 mph - N/A   Mostly Cloudy
10:14 AM 3.2 °F -19.0 °F -0.4 °F 85% 29.66 in 10.0 mi NW 23.0 mph 26.5 mph N/A   Scattered Clouds
10:35 AM 5.0 °F -15.7 °F -0.4 °F 78% 29.66 in 10.0 mi NW 20.7 mph - N/A   Scattered Clouds
10:55 AM 5.0 °F -16.7 °F -0.4 °F 78% 29.67 in 10.0 mi NW 23.0 mph 26.5 mph N/A   Scattered Clouds
11:14 AM 6.8 °F -13.8 °F 1.4 °F 79% 29.67 in 10.0 mi NNW 21.9 mph - N/A   Mostly Cloudy
11:35 AM 6.8 °F -13.8 °F 1.4 °F 79% 29.67 in 10.0 mi NW 21.9 mph 28.8 mph N/A   Mostly Cloudy
11:55 AM 6.8 °F -13.4 °F 1.4 °F 79% 29.67 in 10.0 mi NW 20.7 mph 27.6 mph N/A   Mostly Cloudy
12:14 PM 8.6 °F -12.3 °F 3.2 °F 79% 29.66 in 10.0 mi NW 24.2 mph - N/A   Mostly Cloudy
12:35 PM 8.6 °F -11.9 °F 3.2 °F 79% 29.66 in 7.0 mi NW 23.0 mph 28.8 mph N/A   Mostly Cloudy
12:55 PM 10.4 °F -9.9 °F 5.0 °F 79% 29.66 in 7.0 mi NW 24.2 mph 28.8 mph N/A   Overcast
1:14 PM 10.4 °F -9.9 °F 6.8 °F 85% 29.66 in 10.0 mi NW 24.2 mph 27.6 mph N/A   Overcast
1:35 PM 10.4 °F -9.9 °F 6.8 °F 85% 29.66 in 7.0 mi NW 24.2 mph 28.8 mph N/A   Overcast
1:54 PM 12.2 °F -7.9 °F 8.6 °F 85% 29.66 in 7.0 mi NW 25.3 mph 28.8 mph N/A   Mostly Cloudy
2:15 PM 12.2 °F -7.5 °F 8.6 °F 85% 29.67 in 7.0 mi NW 24.2 mph - N/A   Overcast
2:35 PM 12.2 °F -7.5 °F 6.8 °F 79% 29.68 in 10.0 mi NW 24.2 mph 29.9 mph N/A   Mostly Cloudy
2:54 PM 12.2 °F -6.7 °F 6.8 °F 79% 29.68 in 10.0 mi NW 21.9 mph - N/A   Scattered Clouds
3:15 PM 12.2 °F -6.7 °F 6.8 °F 79% 29.69 in 10.0 mi NW 21.9 mph 28.8 mph N/A   Clear
3:35 PM 12.2 °F -7.1 °F 8.6 °F 85% 29.69 in 10.0 mi NW 23.0 mph 26.5 mph N/A   Scattered Clouds
3:54 PM 12.2 °F -6.7 °F 8.6 °F 85% 29.70 in 10.0 mi NW 21.9 mph 27.6 mph N/A   Scattered Clouds
4:15 PM 12.2 °F -6.3 °F 8.6 °F 85% 29.70 in 10.0 mi NW 20.7 mph 25.3 mph N/A   Mostly Cloudy
4:35 PM 12.2 °F -6.3 °F 8.6 °F 85% 29.71 in 10.0 mi NW 20.7 mph - N/A   Mostly Cloudy
4:54 PM 12.2 °F -7.1 °F 6.8 °F 79% 29.72 in 10.0 mi NW 23.0 mph 26.5 mph N/A   Scattered Clouds
5:15 PM 12.2 °F -5.8 °F 6.8 °F 79% 29.72 in 10.0 mi NW 19.6 mph - N/A   Clear
5:35 PM 12.2 °F -4.8 °F 6.8 °F 79% 29.73 in 10.0 mi NW 17.3 mph - N/A   Clear
5:54 PM 10.4 °F -7.7 °F 6.8 °F 85% 29.73 in 10.0 mi NW 18.4 mph 23.0 mph N/A   Clear
6:15 PM 10.4 °F -6.0 °F 6.8 °F 85% 29.74 in 10.0 mi NW 15.0 mph - N/A   Clear
6:34 PM 10.4 °F -7.7 °F 6.8 °F 85% 29.74 in 10.0 mi NW 18.4 mph 21.9 mph N/A   Clear
6:55 PM 10.4 °F -9.1 °F 5.0 °F 79% 29.76 in 10.0 mi NW 21.9 mph 26.5 mph N/A   Clear
7:15 PM 10.4 °F -7.7 °F 5.0 °F 79% 29.76 in 10.0 mi WNW 18.4 mph - N/A   Clear
7:34 PM 8.6 °F -10.0 °F 5.0 °F 85% 29.76 in 10.0 mi WNW 18.4 mph - N/A   Clear
7:55 PM 8.6 °F -8.9 °F 3.2 °F 79% 29.77 in 10.0 mi WNW 16.1 mph 20.7 mph N/A   Clear
8:15 PM 8.6 °F -10.0 °F 3.2 °F 79% 29.77 in 10.0 mi WNW 18.4 mph - N/A   Clear
8:34 PM 8.6 °F -10.0 °F 3.2 °F 79% 29.78 in 10.0 mi WNW 18.4 mph - N/A   Clear
8:55 PM 6.8 °F -11.3 °F 3.2 °F 85% 29.79 in 10.0 mi NW 16.1 mph 20.7 mph N/A   Clear
9:15 PM 6.8 °F -11.3 °F 1.4 °F 79% 29.80 in 10.0 mi WNW 16.1 mph 19.6 mph N/A   Clear
9:34 PM 6.8 °F -11.8 °F 1.4 °F 79% 29.80 in 10.0 mi WNW 17.3 mph - N/A   Clear
9:55 PM 6.8 °F -11.8 °F 1.4 °F 79% 29.81 in 10.0 mi WNW 17.3 mph - N/A   Clear
10:15 PM 6.8 °F -10.7 °F 1.4 °F 79% 29.81 in 10.0 mi WNW 15.0 mph - N/A   Clear
10:34 PM 6.8 °F -11.3 °F 1.4 °F 79% 29.82 in 10.0 mi NW 16.1 mph - N/A   Clear
10:55 PM 5.0 °F -14.7 °F -0.4 °F 78% 29.82 in 10.0 mi NW 18.4 mph - N/A   Clear
11:14 PM 5.0 °F -13.0 °F -0.4 °F 78% 29.83 in 10.0 mi NW 15.0 mph - N/A   Clear
11:35 PM 5.0 °F -13.0 °F -0.4 °F 78% 29.83 in 10.0 mi WNW 15.0 mph - N/A   Clear
11:55 PM 3.2 °F -15.9 °F -0.4 °F 85% 29.83 in 10.0 mi WNW 16.1 mph - N/A   Clear